sat.trackr.live / text

‹ back to catalog

STARLINK-4635

NORAD 53966 · 2022-125C

PAYLOAD ACTIVE UNKNOWN

§ Identity

Operator
Country
US
Launch date
2022-10-05
Launch site
AFWTR
Launch vehicle
Mass (kg)
RCS (m²)

Purposes: comms

External: N2YO · Heavens-Above · Gunter

§ Orbital elements

Epoch: 2026-09-20T03:49:30.820800Z

Period
93.85 min
Inclination
53.1610°
Eccentricity
0.0001322
Mean motion
15.34389234 rev/d
Perigee alt
461.8 km
Apogee alt
463.6 km
Semi-major
6,840.9 km
B*
6.4783e-5
RAAN
63.2207°
Arg perigee
89.3190°
Mean anomaly
270.7964°
Rev number
21,878

§ Raw data

STARLINK-46351 53966U 22125C   26263.15938450  .00001812  00000+0  64783-4 0  99982 53966  53.1610  63.2207 0001322  89.3190 270.7964 15.34389234218788

JSON: /api/v1/satellites/53966 · /tle

For live sub-satellite position, see the globe view (requires WebGL).

§ Visibility from observer

Set your observer location to see the next 7 days of passes ≥ 10°. The values pass through the URL so the page stays shareable.

No JS? Fill the form by hand. The geolocation button needs JavaScript.